Regional Weather Roundup
Issued by NWS Goodland, KS

Home | Current Version | Previous Version | Text Only | Print | Product List | Glossary Off
Versions: 1 2 3 4 5 6 7 8 9 10 11 12 13 14 15 16 17 18 19 20 21 22 23 24 25 26 27 28 29 30 31 32 33 34 35 36 37 38 39 40 41 42 43 44 45 46 47 48 49 50

000
ASUS43 KGLD 221959
RWRGLD

GOODLAND FORECAST AREA HOURLY WEATHER ROUNDUP
NATIONAL WEATHER SERVICE GOODLAND KS
200 PM MDT WED OCT 22 2014

...OFFICIAL OBSERVATIONS...

CITY           SKY/WX    TMP DP  RH WIND       PRES   REMARKS
GOODLAND KS    SUNNY     73  45  36 N10       30.02F
HILL CITY KS   CLOUDY    73  56  54 S15G21    29.97F
IMPERIAL NEB   MOSUNNY   70  47  43 NE9       30.01F
MCCOOK NEB     PTSUNNY   69  51  52 NE6       30.00S
AKRON CO       MOSUNNY   67  37  33 NW7       30.07F
BURLINGTON CO  SUNNY     71  41  33 NE8       30.04F
LIMON CO       SUNNY     65  36  34 CALM      30.09F
$$

...UNOFFICIAL OBSERVATIONS...

CITY           SKY/WX    TMP DP  RH WIND       PRES   REMARKS
COLBY KS       SUNNY     72  52  49 N13       30.02S
GOVE KS          N/A     73  32  22 MISG        N/A
NORTON KS      CLOUDY    68  55  64 S8        29.98S
SHARON SPRINGS   N/A     72  49  44 NE10G17     N/A
TRENTON NEB      N/A     71  32  23 N10         N/A
KIT CARSON CO    N/A     70  44  38 CALM        N/A
YUMA CO          N/A     69  37  31 N5G16       N/A
$$



USA.gov is the U.S. government's official web portal to all federal, state and local government web resources and services.